When you browse on this site, cookies collect data to enhance your experience and personalize the content and advertising you see.
Visit our Privacy Policy to learn more. By continuing to use the site, you agree to this use of cookies and data.

Hourly Weather Szolnok

Today, 13 August, Thursday

Time Temperature Precipitation Wind Pressure Humidity
00:00 +21°C° 0 mm 3 mps 755 mmHg 63%
01:00 +20°C° 0 mm 2 mps 756 mmHg 65%
02:00 +19°C° 0 mm 2 mps 755 mmHg 66%
03:00 +19°C° 0 mm 2 mps 755 mmHg 66%
04:00 +18°C° 0 mm 2 mps 755 mmHg 66%
05:00 +19°C° 0 mm 2 mps 755 mmHg 64%
06:00 +20°C° 0 mm 2 mps 755 mmHg 62%
07:00 +21°C° 0 mm 2 mps 755 mmHg 60%
08:00 +24°C° 0 mm 2 mps 755 mmHg 53%
09:00 +26°C° 0 mm 2 mps 755 mmHg 47%
10:00 +28°C° 0 mm 2 mps 755 mmHg 41%
11:00 +29°C° 0 mm 1 mps 755 mmHg 39%
12:00 +30°C° 0 mm 1 mps 755 mmHg 38%
13:00 +32°C° 0 mm 1 mps 754 mmHg 36%
14:00 +32°C° 0 mm 1 mps 754 mmHg 36%
15:00 +32°C° 0 mm 1 mps 754 mmHg 35%
16:00 +32°C° 0 mm 1 mps 753 mmHg 34%
17:00 +30°C° 0 mm 1 mps 753 mmHg 38%
18:00 +28°C° 0 mm 1 mps 753 mmHg 42%
19:00 +27°C° 0 mm 1 mps 753 mmHg 46%
20:00 +26°C° 0 mm 2 mps 753 mmHg 49%
21:00 +25°C° 0 mm 2 mps 753 mmHg 52%
22:00 +24°C° 0 mm 2 mps 753 mmHg 54%
23:00 +24°C° 0 mm 2 mps 753 mmHg 56%

Tomorrow, 14 August, Friday

Time Temperature Precipitation Wind Pressure Humidity
00:00 +24°C° 0 mm 2 mps 753 mmHg 57%
01:00 +23°C° 0 mm 1 mps 753 mmHg 58%
02:00 +23°C° 0 mm 1 mps 753 mmHg 59%
03:00 +22°C° 0 mm 1 mps 753 mmHg 60%
04:00 +22°C° 0 mm 1 mps 752 mmHg 61%
05:00 +22°C° 0 mm 1 mps 753 mmHg 60%
06:00 +23°C° 0 mm 1 mps 753 mmHg 59%
07:00 +24°C° 0 mm 2 mps 753 mmHg 58%
08:00 +25°C° 0 mm 2 mps 753 mmHg 55%
09:00 +26°C° 0 mm 2 mps 753 mmHg 52%
10:00 +28°C° 0 mm 2 mps 753 mmHg 49%
11:00 +29°C° 0 mm 2 mps 752 mmHg 47%
12:00 +30°C° 0 mm 2 mps 752 mmHg 44%
13:00 +30°C° 0 mm 2 mps 752 mmHg 41%
14:00 +31°C° 0 mm 2 mps 751 mmHg 40%
15:00 +31°C° 0 mm 2 mps 751 mmHg 39%
16:00 +31°C° 0 mm 1 mps 751 mmHg 38%
17:00 +30°C° 0 mm 1 mps 751 mmHg 42%
18:00 +28°C° 0 mm 1 mps 751 mmHg 46%
19:00 +27°C° 0 mm 1 mps 751 mmHg 50%
20:00 +26°C° 0 mm 1 mps 751 mmHg 53%
21:00 +25°C° 0 mm 1 mps 751 mmHg 56%
22:00 +25°C° 0 mm 2 mps 751 mmHg 58%
23:00 +24°C° 0 mm 2 mps 751 mmHg 60%

Day after tomorrow, 15 August, Saturday

Time Temperature Precipitation Wind Pressure Humidity
00:00 +24°C° 0 mm 2 mps 751 mmHg 61%
01:00 +24°C° 0 mm 1 mps 751 mmHg 63%
02:00 +23°C° 0 mm 2 mps 751 mmHg 64%
03:00 +23°C° 0 mm 2 mps 751 mmHg 66%
04:00 +21°C° 0 mm 2 mps 751 mmHg 68%
05:00 +22°C° 0 mm 3 mps 751 mmHg 68%
06:00 +22°C° 0 mm 3 mps 751 mmHg 68%
07:00 +24°C° 0 mm 3 mps 751 mmHg 68%
08:00 +25°C° 0 mm 3 mps 751 mmHg 63%
09:00 +26°C° 0 mm 3 mps 751 mmHg 59%
10:00 +27°C° 0 mm 2 mps 752 mmHg 55%
11:00 +28°C° 0 mm 3 mps 751 mmHg 53%
12:00 +28°C° 0 mm 3 mps 751 mmHg 51%
13:00 +29°C° 0 mm 3 mps 751 mmHg 49%
14:00 +29°C° 0 mm 3 mps 751 mmHg 51%
15:00 +28°C° 0 mm 3 mps 751 mmHg 53%
16:00 +28°C° 0 mm 3 mps 750 mmHg 55%
17:00 +27°C° 0 mm 3 mps 750 mmHg 59%
18:00 +26°C° 0 mm 3 mps 750 mmHg 63%
19:00 +25°C° 0 mm 2 mps 750 mmHg 66%
20:00 +24°C° 0 mm 3 mps 751 mmHg 68%
21:00 +24°C° 0 mm 3 mps 751 mmHg 70%
22:00 +22°C° 0 mm 3 mps 751 mmHg 71%
23:00 +22°C° 0 mm 3 mps 751 mmHg 71%

16 August, Sunday

Time Temperature Precipitation Wind Pressure Humidity
00:00 +21°C° 0 mm 3 mps 751 mmHg 71%
01:00 +21°C° 0 mm 3 mps 751 mmHg 70%
02:00 +21°C° 0 mm 3 mps 751 mmHg 72%
03:00 +20°C° 0 mm 3 mps 751 mmHg 73%
04:00 +20°C° 0 mm 3 mps 751 mmHg 75%
05:00 +20°C° 0 mm 3 mps 752 mmHg 74%
06:00 +21°C° 0 mm 3 mps 752 mmHg 74%
07:00 +21°C° 0 mm 3 mps 752 mmHg 74%
08:00 +24°C° 0 mm 3 mps 752 mmHg 68%
09:00 +26°C° 0 mm 3 mps 753 mmHg 61%
10:00 +27°C° 0 mm 3 mps 753 mmHg 55%
11:00 +29°C° 0 mm 3 mps 753 mmHg 51%
12:00 +30°C° 0 mm 3 mps 752 mmHg 47%
13:00 +31°C° 0 mm 3 mps 752 mmHg 43%
14:00 +31°C° 0 mm 3 mps 752 mmHg 43%
15:00 +31°C° 0 mm 3 mps 752 mmHg 42%
16:00 +31°C° 0 mm 3 mps 752 mmHg 41%
17:00 +29°C° 0 mm 3 mps 752 mmHg 47%
18:00 +27°C° 0 mm 3 mps 752 mmHg 53%
19:00 +26°C° 0 mm 3 mps 752 mmHg 59%
20:00 +24°C° 0.1 mm 2 mps 752 mmHg 65%
21:00 +23°C° 0.1 mm 2 mps 753 mmHg 70%
22:00 +21°C° 0.1 mm 2 mps 753 mmHg 75%
23:00 +21°C° 0 mm 2 mps 753 mmHg 78%

17 August, Monday

Time Temperature Precipitation Wind Pressure Humidity
00:00 +20°C° 0 mm 2 mps 753 mmHg 81%
01:00 +20°C° 0 mm 1 mps 753 mmHg 84%
02:00 +20°C° 0 mm 1 mps 753 mmHg 85%
03:00 +20°C° 0 mm 1 mps 753 mmHg 86%
04:00 +19°C° 0 mm 1 mps 753 mmHg 88%
05:00 +20°C° 0 mm 1 mps 753 mmHg 82%
06:00 +20°C° 0 mm 2 mps 753 mmHg 77%
07:00 +21°C° 0 mm 2 mps 754 mmHg 71%
08:00 +24°C° 0 mm 2 mps 753 mmHg 64%
09:00 +26°C° 0 mm 3 mps 753 mmHg 57%
10:00 +28°C° 0 mm 3 mps 753 mmHg 50%
11:00 +29°C° 0 mm 3 mps 753 mmHg 47%
12:00 +29°C° 0 mm 3 mps 753 mmHg 44%
13:00 +30°C° 0 mm 3 mps 752 mmHg 41%
14:00 +30°C° 0 mm 3 mps 752 mmHg 41%
15:00 +31°C° 0 mm 3 mps 751 mmHg 41%
16:00 +31°C° 0 mm 3 mps 751 mmHg 41%
17:00 +29°C° 0 mm 3 mps 751 mmHg 46%
18:00 +28°C° 0 mm 3 mps 751 mmHg 52%
19:00 +26°C° 0 mm 3 mps 751 mmHg 57%
20:00 +25°C° 0 mm 3 mps 751 mmHg 61%
21:00 +24°C° 0 mm 3 mps 751 mmHg 64%
22:00 +22°C° 0 mm 3 mps 751 mmHg 68%
23:00 +22°C° 0 mm 3 mps 751 mmHg 69%

18 August, Tuesday

Time Temperature Precipitation Wind Pressure Humidity
00:00 +21°C° 0 mm 2 mps 751 mmHg 71%
01:00 +21°C° 0 mm 2 mps 751 mmHg 72%
02:00 +20°C° 0 mm 2 mps 751 mmHg 73%
03:00 +21°C° 0 mm 1 mps 751 mmHg 73%
04:00 +20°C° 0 mm 1 mps 750 mmHg 74%
05:00 +22°C° 0 mm 1 mps 750 mmHg 71%
06:00 +23°C° 0 mm 1 mps 751 mmHg 67%
07:00 +24°C° 0 mm 1 mps 751 mmHg 63%
08:00 +26°C° 0 mm 2 mps 751 mmHg 57%
09:00 +27°C° 0 mm 2 mps 751 mmHg 50%
10:00 +29°C° 0 mm 2 mps 751 mmHg 44%
11:00 +30°C° 0 mm 2 mps 750 mmHg 41%
12:00 +31°C° 0 mm 2 mps 750 mmHg 39%
13:00 +32°C° 0 mm 2 mps 749 mmHg 36%
14:00 +31°C° 0 mm 2 mps 749 mmHg 37%
15:00 +31°C° 0 mm 2 mps 749 mmHg 37%
16:00 +31°C° 0 mm 2 mps 749 mmHg 38%
17:00 +30°C° 0 mm 2 mps 749 mmHg 43%
18:00 +28°C° 0 mm 2 mps 749 mmHg 49%
19:00 +26°C° 0 mm 2 mps 749 mmHg 55%
20:00 +25°C° 0 mm 2 mps 749 mmHg 59%
21:00 +24°C° 0 mm 2 mps 749 mmHg 63%
22:00 +23°C° 0 mm 2 mps 750 mmHg 67%
23:00 +23°C° 0.3 mm 2 mps 749 mmHg 72%
Show more